DELTA 1 DEB, 21355

Orbit data source: Space-Track

DELTA 1 DEB, 21355 is space debris in SSO originally from a launch on Thu, 12 Jun 1975 UTC launched from the Air Force Western Test Range (AFWTR). Debris objects in space refer to the collection of defunct objects orbiting the Earth. Examples of debris include non-operational satellites, rocket bodies, and fragments generated from explosions, collisions, or faulty payload assembly.

Loading next visibility...
Identifier
21355, 1975-052BZ
Orbit
SSO
Country
Flag of USUS
Related business
Manufacturer
Unknown
Mission
Spacecraft
Bus & Motor
Unknown
Mass
Unknown
Launch date (UTC)
1975-06-12 (51 years ago)
Launch vehicle
Unknown
Launch site
Air Force Western Test Range (AFWTR)
Object type
Payload
Rocket body
Debris
Shape & HBR
Unknown shape, 0.1 m
Radar Cross Section
Medium (>0.1 m² and <1 m²)

Expand to show TLE details & history
Last TLE update: 13 hours ago

TLE from 13 hours ago
0 DELTA 1 DEB
1 21355U 75052BZ  26168.86427343 -.00000023  00000-0  40100-4 0  9990
2 21355  99.6389 141.4219 0150130   5.4340  56.1046 13.14194850682228
Epoch: 2026-06-17T20:44Z
TLE epoch observation values (Epoch: 2026-06-17T20:44:33.224Z)
Latitude
61.52726°
Longitude
-93.98547°
Altitude
1,155.084 km
Speed
7.311 km/s
True Right ascension
08h 13m 04s
True Declination
61° 23' 26"
Sunlit
Object was in daylight at epoch
Visualization orbit readout
Latitude
Unknown
Longitude
Unknown
Altitude
Unknown
Speed
Unknown
Apparent Right ascension
Unknown
Apparent Declination
Unknown
Sunlit
N/A
Visualization observer readout
Local Sidereal Time
20:20:01
Azimuth
Unknown
Elevation
Unknown
Doppler factor
Unknown
Orbital elements
Apogee altitude
1,318.156 km
Perigee altitude
1,090.485 km
Semi-major axis
7,582.458 km
Eccentricity
0.01501
Inclination
99.6389°
RAAN
141.4219°
Arg. of periapsis
5.434°
True anomaly
57.54754°
Mean anomaly
56.1046°
Eccentric anomaly
56.82457°
Mean motion
3.28722 °/min
Orbital period
109.52 mins
BSTAR
0.0000401
Loading maneuver chart data...
Computing Atmospheric mass density...

Documentation

Showing up to 5 results
|